Location: ??????
(38.3184°N, 23.6932°E)
Time: 02:11:37
(UTC+00:00)

Cosmos 1703 - Pass Details

Date: 16 October 2021
Orbit: 521 x 539 km, 82.5° (Epoch: 04 December)

Event Time Altitude Azimuth Distance (km) Brightness Sun altitude
Rises 16:28:06 0° 5° (N) 2,691 6.7 -9.0°
Reaches altitude 10° 16:30:32 10° 18° (NNE) 1,792 5.7 -9.5°
Maximum altitude 16:33:53 26° 77° (ENE) 1,066 4.2 -10.2°
Drops below altitude 10° 16:37:11 10° 135° (SE) 1,771 5.5 -10.8°
Sets 16:39:34 0° 148° (SSE) 2,652 6.5 -11.3°
